Year,Month,Day,Hour,Minute,Value (Times are PST for temperature in C)
2018,08,10,00,00,23.20
2018,08,10,00,01,23.20
2018,08,10,00,02,23.20
2018,08,10,00,03,23.20
2018,08,10,00,04,23.20
2018,08,10,00,05,23.20
2018,08,10,00,06,23.20
2018,08,10,00,07,23.20
2018,08,10,00,08,23.20
2018,08,10,00,09,23.20
2018,08,10,00,10,23.20
2018,08,10,00,11,23.20
2018,08,10,00,12,23.20
2018,08,10,00,13,23.20
2018,08,10,00,14,23.10
2018,08,10,00,15,23.10
2018,08,10,00,16,23.00
2018,08,10,00,17,22.90
2018,08,10,00,18,22.80
2018,08,10,00,19,22.80
2018,08,10,00,20,22.70
2018,08,10,00,21,22.60
2018,08,10,00,22,22.60
2018,08,10,00,23,22.50
2018,08,10,00,24,22.50
2018,08,10,00,25,22.40
2018,08,10,00,26,22.40
2018,08,10,00,27,22.30
2018,08,10,00,28,22.30
2018,08,10,00,29,22.30
2018,08,10,00,30,22.20
2018,08,10,00,31,22.20
2018,08,10,00,32,22.10
2018,08,10,00,33,22.10
2018,08,10,00,34,22.10
2018,08,10,00,35,22.00
2018,08,10,00,36,21.90
2018,08,10,00,37,21.90
2018,08,10,00,38,21.80
2018,08,10,00,39,21.80
2018,08,10,00,40,21.80
2018,08,10,00,41,21.80
2018,08,10,00,42,21.90
2018,08,10,00,43,22.10
2018,08,10,00,44,22.20
2018,08,10,00,45,22.30
2018,08,10,00,46,22.40
2018,08,10,00,47,22.40
2018,08,10,00,48,22.50
2018,08,10,00,49,22.50
2018,08,10,00,50,22.50
2018,08,10,00,51,22.50
2018,08,10,00,52,22.40
2018,08,10,00,53,22.40
2018,08,10,00,54,22.40
2018,08,10,00,55,22.40
2018,08,10,00,56,22.40
2018,08,10,00,57,22.40
2018,08,10,00,58,22.40
2018,08,10,00,59,22.40
2018,08,10,01,00,22.40
2018,08,10,01,01,22.40
2018,08,10,01,02,22.40
2018,08,10,01,03,22.40
2018,08,10,01,04,22.50
2018,08,10,01,05,22.50
2018,08,10,01,06,22.50
2018,08,10,01,07,22.60
2018,08,10,01,08,22.60
2018,08,10,01,09,22.60
2018,08,10,01,10,22.60
2018,08,10,01,11,22.50
2018,08,10,01,12,22.50
2018,08,10,01,13,22.50
2018,08,10,01,14,22.50
2018,08,10,01,15,22.50
2018,08,10,01,16,22.50
2018,08,10,01,17,22.40
2018,08,10,01,18,22.40
2018,08,10,01,19,22.40
2018,08,10,01,20,22.40
2018,08,10,01,21,22.40
2018,08,10,01,22,22.50
2018,08,10,01,23,22.50
2018,08,10,01,24,22.50
2018,08,10,01,25,22.50
2018,08,10,01,26,22.60
2018,08,10,01,27,22.50
2018,08,10,01,28,22.50
2018,08,10,01,29,22.50
2018,08,10,01,30,22.60
2018,08,10,01,31,22.60
2018,08,10,01,32,22.70
2018,08,10,01,33,22.80
2018,08,10,01,34,22.90
2018,08,10,01,35,23.00
2018,08,10,01,36,23.10
2018,08,10,01,37,23.10
2018,08,10,01,38,23.20
2018,08,10,01,39,23.20
2018,08,10,01,40,23.20
2018,08,10,01,41,23.20
2018,08,10,01,42,23.20
2018,08,10,01,43,23.30
2018,08,10,01,44,23.30
2018,08,10,01,45,23.40
2018,08,10,01,46,23.40
2018,08,10,01,47,23.40
2018,08,10,01,48,23.50
2018,08,10,01,49,23.50
2018,08,10,01,50,23.50
2018,08,10,01,51,23.50
2018,08,10,01,52,23.60
2018,08,10,01,53,23.60
2018,08,10,01,54,23.60
2018,08,10,01,55,23.60
2018,08,10,01,56,23.60
2018,08,10,01,57,23.70
2018,08,10,01,58,23.70
2018,08,10,01,59,23.70
2018,08,10,02,00,23.70
2018,08,10,02,01,23.70
2018,08,10,02,02,23.70
2018,08,10,02,03,23.80
2018,08,10,02,04,23.80
2018,08,10,02,05,23.80
2018,08,10,02,06,23.80
2018,08,10,02,07,23.80
2018,08,10,02,08,23.80
2018,08,10,02,09,23.80
2018,08,10,02,10,23.80
2018,08,10,02,11,23.80
2018,08,10,02,12,23.80
2018,08,10,02,13,23.80
2018,08,10,02,14,23.80
2018,08,10,02,15,23.80
2018,08,10,02,16,23.80
2018,08,10,02,17,23.90
2018,08,10,02,18,23.90
2018,08,10,02,19,23.90
2018,08,10,02,20,23.90
2018,08,10,02,21,23.90
2018,08,10,02,22,23.90
2018,08,10,02,23,23.90
2018,08,10,02,24,23.90
2018,08,10,02,25,23.90
2018,08,10,02,26,23.90
2018,08,10,02,27,23.90
2018,08,10,02,28,23.90
2018,08,10,02,29,23.90
2018,08,10,02,30,23.80
2018,08,10,02,31,23.80
2018,08,10,02,32,23.80
2018,08,10,02,33,23.80
2018,08,10,02,34,23.80
2018,08,10,02,35,23.80
2018,08,10,02,36,23.80
2018,08,10,02,37,23.80
2018,08,10,02,38,23.70
2018,08,10,02,39,23.70
2018,08,10,02,40,23.70
2018,08,10,02,41,23.70
2018,08,10,02,42,23.70
2018,08,10,02,43,23.70
2018,08,10,02,44,23.70
2018,08,10,02,45,23.70
2018,08,10,02,46,23.70
2018,08,10,02,47,23.70
2018,08,10,02,48,23.70
2018,08,10,02,49,23.70
2018,08,10,02,50,23.70
2018,08,10,02,51,23.70
2018,08,10,02,52,23.70
2018,08,10,02,53,23.70
2018,08,10,02,54,23.70
2018,08,10,02,55,23.60
2018,08,10,02,56,23.60
2018,08,10,02,57,23.60
2018,08,10,02,58,23.60
2018,08,10,02,59,23.60
2018,08,10,03,00,23.60
2018,08,10,03,01,23.60
2018,08,10,03,02,23.60
2018,08,10,03,03,23.60
2018,08,10,03,04,23.50
2018,08,10,03,05,23.50
2018,08,10,03,06,23.40
2018,08,10,03,07,23.40
2018,08,10,03,08,23.40
2018,08,10,03,09,23.40
2018,08,10,03,10,23.40
2018,08,10,03,11,23.40
2018,08,10,03,12,23.30
2018,08,10,03,13,23.30
2018,08,10,03,14,23.30
2018,08,10,03,15,23.30
2018,08,10,03,16,23.30
2018,08,10,03,17,23.20
2018,08,10,03,18,23.20
2018,08,10,03,19,23.20
2018,08,10,03,20,23.20
2018,08,10,03,21,23.20
2018,08,10,03,22,23.20
2018,08,10,03,23,23.20
2018,08,10,03,24,23.20
2018,08,10,03,25,23.20
2018,08,10,03,26,23.20
2018,08,10,03,27,23.10
2018,08,10,03,28,23.10
2018,08,10,03,29,23.10
2018,08,10,03,30,23.10
2018,08,10,03,31,23.00
2018,08,10,03,32,23.00
2018,08,10,03,33,22.90
2018,08,10,03,34,22.90
2018,08,10,03,35,22.90
2018,08,10,03,36,22.90
2018,08,10,03,37,22.90
2018,08,10,03,38,22.90
2018,08,10,03,39,22.90
2018,08,10,03,40,22.90
2018,08,10,03,41,22.90
2018,08,10,03,42,22.90
2018,08,10,03,43,22.90
2018,08,10,03,44,22.90
2018,08,10,03,45,22.80
2018,08,10,03,46,22.80
2018,08,10,03,47,22.80
2018,08,10,03,48,22.80
2018,08,10,03,49,22.80
2018,08,10,03,50,22.70
2018,08,10,03,51,22.70
2018,08,10,03,52,22.70
2018,08,10,03,53,22.70
2018,08,10,03,54,22.70
2018,08,10,03,55,22.70
2018,08,10,03,56,22.70
2018,08,10,03,57,22.70
2018,08,10,03,58,22.60
2018,08,10,03,59,22.60
2018,08,10,04,00,22.60
2018,08,10,04,01,22.60
2018,08,10,04,02,22.60
2018,08,10,04,03,22.60
2018,08,10,04,04,22.60
2018,08,10,04,05,22.60
2018,08,10,04,06,22.60
2018,08,10,04,07,22.60
2018,08,10,04,08,22.60
2018,08,10,04,09,22.60
2018,08,10,04,10,22.60
2018,08,10,04,11,22.60
2018,08,10,04,12,22.60
2018,08,10,04,13,22.60
2018,08,10,04,14,22.60
2018,08,10,04,15,22.60
2018,08,10,04,16,22.60
2018,08,10,04,17,22.60
2018,08,10,04,18,22.60
2018,08,10,04,19,22.60
2018,08,10,04,20,22.50
2018,08,10,04,21,22.50
2018,08,10,04,22,22.50
2018,08,10,04,23,22.50
2018,08,10,04,24,22.40
2018,08,10,04,25,22.40
2018,08,10,04,26,22.40
2018,08,10,04,27,22.40
2018,08,10,04,28,22.40
2018,08,10,04,29,22.40
2018,08,10,04,30,22.30
2018,08,10,04,31,22.30
2018,08,10,04,32,22.30
2018,08,10,04,33,22.30
2018,08,10,04,34,22.30
2018,08,10,04,35,22.20
2018,08,10,04,36,22.20
2018,08,10,04,37,22.20
2018,08,10,04,38,22.20
2018,08,10,04,39,22.20
2018,08,10,04,40,22.10
2018,08,10,04,41,22.10
2018,08,10,04,42,22.10
2018,08,10,04,43,22.10
2018,08,10,04,44,22.10
2018,08,10,04,45,22.10
2018,08,10,04,46,22.10
2018,08,10,04,47,22.00
2018,08,10,04,48,22.00
2018,08,10,04,49,21.90
2018,08,10,04,50,21.90
2018,08,10,04,51,21.90
2018,08,10,04,52,21.90
2018,08,10,04,53,21.90
2018,08,10,04,54,21.90
2018,08,10,04,55,21.90
2018,08,10,04,56,21.90
2018,08,10,04,57,21.90
2018,08,10,04,58,21.90
2018,08,10,04,59,22.00
2018,08,10,05,00,22.00
2018,08,10,05,01,22.00
2018,08,10,05,02,22.10
2018,08,10,05,03,22.10
2018,08,10,05,04,22.10
2018,08,10,05,05,22.10
2018,08,10,05,06,22.10
2018,08,10,05,07,22.10
2018,08,10,05,08,22.10
2018,08,10,05,09,22.10
2018,08,10,05,10,22.10
2018,08,10,05,11,22.10
2018,08,10,05,12,22.10
2018,08,10,05,13,22.00
2018,08,10,05,14,22.10
2018,08,10,05,15,22.10
2018,08,10,05,16,22.10
2018,08,10,05,17,22.10
2018,08,10,05,18,22.10
2018,08,10,05,19,22.10
2018,08,10,05,20,22.10
2018,08,10,05,21,22.10
2018,08,10,05,22,22.10
2018,08,10,05,23,22.10
2018,08,10,05,24,22.10
2018,08,10,05,25,22.10
2018,08,10,05,26,22.10
2018,08,10,05,27,22.10
2018,08,10,05,28,22.00
2018,08,10,05,29,22.00
2018,08,10,05,30,22.00
2018,08,10,05,31,21.90
2018,08,10,05,32,21.90
2018,08,10,05,33,21.90
2018,08,10,05,34,21.80
2018,08,10,05,35,21.80
2018,08,10,05,36,21.80
2018,08,10,05,37,21.80
2018,08,10,05,38,21.80
2018,08,10,05,39,21.80
2018,08,10,05,40,21.80
2018,08,10,05,41,21.70
2018,08,10,05,42,21.70
2018,08,10,05,43,21.70
2018,08,10,05,44,21.70
2018,08,10,05,45,21.70
2018,08,10,05,46,21.70
2018,08,10,05,47,21.70
2018,08,10,05,48,21.70
2018,08,10,05,49,21.80
2018,08,10,05,50,21.80
2018,08,10,05,51,21.80
2018,08,10,05,52,21.80
2018,08,10,05,53,21.80
2018,08,10,05,54,21.80
2018,08,10,05,55,21.80
2018,08,10,05,56,21.80
2018,08,10,05,57,21.80
2018,08,10,05,58,21.80
2018,08,10,05,59,21.80
2018,08,10,06,00,21.80
2018,08,10,06,01,21.80
2018,08,10,06,02,21.80
2018,08,10,06,03,21.80
2018,08,10,06,04,21.80
2018,08,10,06,05,21.70
2018,08,10,06,06,21.70
2018,08,10,06,07,21.70
2018,08,10,06,08,21.70
2018,08,10,06,09,21.70
2018,08,10,06,10,21.70
2018,08,10,06,11,21.70
2018,08,10,06,12,21.70
2018,08,10,06,13,21.70
2018,08,10,06,14,21.70
2018,08,10,06,15,21.70
2018,08,10,06,16,21.70
2018,08,10,06,17,21.70
2018,08,10,06,18,21.80
2018,08,10,06,19,21.80
2018,08,10,06,20,21.80
2018,08,10,06,21,21.80
2018,08,10,06,22,21.80
2018,08,10,06,23,21.80
2018,08,10,06,24,21.80
2018,08,10,06,25,21.80
2018,08,10,06,26,21.80
2018,08,10,06,27,21.80
2018,08,10,06,28,21.70
2018,08,10,06,29,21.70
2018,08,10,06,30,21.70
2018,08,10,06,31,21.70
2018,08,10,06,32,21.70
2018,08,10,06,33,21.60
2018,08,10,06,34,21.60
2018,08,10,06,35,21.60
2018,08,10,06,36,21.70
2018,08,10,06,37,21.70
2018,08,10,06,38,21.70
2018,08,10,06,39,21.70
2018,08,10,06,40,21.60
2018,08,10,06,41,21.60
2018,08,10,06,42,21.60
2018,08,10,06,43,21.60
2018,08,10,06,44,21.60
2018,08,10,06,45,21.60
2018,08,10,06,46,21.60
2018,08,10,06,47,21.60
2018,08,10,06,48,21.60
2018,08,10,06,49,21.60
2018,08,10,06,50,21.70
2018,08,10,06,51,21.70
2018,08,10,06,52,21.70
2018,08,10,06,53,21.70
2018,08,10,06,54,21.80
2018,08,10,06,55,21.80
2018,08,10,06,56,21.80
2018,08,10,06,57,21.80
2018,08,10,06,58,21.80
2018,08,10,06,59,21.80
2018,08,10,07,00,21.80
2018,08,10,07,01,21.80
2018,08,10,07,02,21.80
2018,08,10,07,03,21.80
2018,08,10,07,04,21.80
2018,08,10,07,05,21.80
2018,08,10,07,06,21.80
2018,08,10,07,07,21.80
2018,08,10,07,08,21.90
2018,08,10,07,09,21.90
2018,08,10,07,10,21.90
2018,08,10,07,11,21.90
2018,08,10,07,12,21.90
2018,08,10,07,13,21.90
2018,08,10,07,14,21.90
2018,08,10,07,15,21.90
2018,08,10,07,16,21.90
2018,08,10,07,17,22.00
2018,08,10,07,18,22.00
2018,08,10,07,19,22.10
2018,08,10,07,20,22.10
2018,08,10,07,21,22.10
2018,08,10,07,22,22.20
2018,08,10,07,23,22.20
2018,08,10,07,24,22.20
2018,08,10,07,25,22.20
2018,08,10,07,26,22.30
2018,08,10,07,27,22.30
2018,08,10,07,28,22.30
2018,08,10,07,29,22.30
2018,08,10,07,30,22.30
2018,08,10,07,31,22.30
2018,08,10,07,32,22.30
2018,08,10,07,33,22.30
2018,08,10,07,34,22.30
2018,08,10,07,35,22.30
2018,08,10,07,36,22.40
2018,08,10,07,37,22.40
2018,08,10,07,38,22.40
2018,08,10,07,39,22.40
2018,08,10,07,40,22.40
2018,08,10,07,41,22.40
2018,08,10,07,42,22.40
2018,08,10,07,43,22.40
2018,08,10,07,44,22.40
2018,08,10,07,45,22.40
2018,08,10,07,46,22.50
2018,08,10,07,47,22.50
2018,08,10,07,48,22.50
2018,08,10,07,49,22.50
2018,08,10,07,50,22.50
2018,08,10,07,51,22.50
2018,08,10,07,52,22.50
2018,08,10,07,53,22.50
2018,08,10,07,54,22.40
2018,08,10,07,55,22.50
2018,08,10,07,56,22.50
2018,08,10,07,57,22.50
2018,08,10,07,58,22.50
2018,08,10,07,59,22.50
2018,08,10,08,00,22.50
2018,08,10,08,01,22.50
2018,08,10,08,02,22.50
2018,08,10,08,03,22.40
2018,08,10,08,04,22.40
2018,08,10,08,05,22.40
2018,08,10,08,06,22.40
2018,08,10,08,07,22.50
2018,08,10,08,08,22.50
2018,08,10,08,09,22.50
2018,08,10,08,10,22.50
2018,08,10,08,11,22.50
2018,08,10,08,12,22.60
2018,08,10,08,13,22.60
2018,08,10,08,14,22.60
2018,08,10,08,15,22.60
2018,08,10,08,16,22.60
2018,08,10,08,17,22.60
2018,08,10,08,18,22.60
2018,08,10,08,19,22.60
2018,08,10,08,20,22.70
2018,08,10,08,21,22.70
2018,08,10,08,22,22.70
2018,08,10,08,23,22.70
2018,08,10,08,24,22.70
2018,08,10,08,25,22.70
2018,08,10,08,26,22.80
2018,08,10,08,27,22.80
2018,08,10,08,28,22.80
2018,08,10,08,29,22.80
2018,08,10,08,30,22.80
2018,08,10,08,31,22.90
2018,08,10,08,32,22.90
2018,08,10,08,33,22.90
2018,08,10,08,34,23.00
2018,08,10,08,35,23.10
2018,08,10,08,36,23.10
2018,08,10,08,37,23.20
2018,08,10,08,38,23.20
2018,08,10,08,39,23.20
2018,08,10,08,40,23.30
2018,08,10,08,41,23.30
2018,08,10,08,42,23.30
2018,08,10,08,43,23.40
2018,08,10,08,44,23.50
2018,08,10,08,45,23.50
2018,08,10,08,46,23.60
2018,08,10,08,47,23.60
2018,08,10,08,48,23.70
2018,08,10,08,49,23.70
2018,08,10,08,50,23.70
2018,08,10,08,51,23.80
2018,08,10,08,52,23.80
2018,08,10,08,53,23.90
2018,08,10,08,54,23.90
2018,08,10,08,55,23.90
2018,08,10,08,56,24.00
2018,08,10,08,57,24.00
2018,08,10,08,58,24.00
2018,08,10,08,59,24.00
2018,08,10,09,00,24.00
2018,08,10,09,01,24.00
2018,08,10,09,02,24.10
2018,08,10,09,03,24.10
2018,08,10,09,04,24.10
2018,08,10,09,05,24.10
2018,08,10,09,06,24.20
2018,08,10,09,07,24.20
2018,08,10,09,08,24.20
2018,08,10,09,09,24.20
2018,08,10,09,10,24.20
2018,08,10,09,11,24.20
2018,08,10,09,12,24.20
2018,08,10,09,13,24.30
2018,08,10,09,14,24.30
2018,08,10,09,15,24.30
2018,08,10,09,16,24.30
2018,08,10,09,17,24.30
2018,08,10,09,18,24.30
2018,08,10,09,19,24.30
2018,08,10,09,20,24.30
2018,08,10,09,21,24.30
2018,08,10,09,22,24.20
2018,08,10,09,23,24.00
2018,08,10,09,24,23.80
2018,08,10,09,25,23.60
2018,08,10,09,26,23.40
2018,08,10,09,27,23.40
2018,08,10,09,28,23.30
2018,08,10,09,29,23.30
2018,08,10,09,30,23.20
2018,08,10,09,31,23.20
2018,08,10,09,32,23.10
2018,08,10,09,33,23.10
2018,08,10,09,34,23.10
2018,08,10,09,35,23.10
2018,08,10,09,36,23.20
2018,08,10,09,37,23.20
2018,08,10,09,38,23.20
2018,08,10,09,39,23.20
2018,08,10,09,40,23.20
2018,08,10,09,41,23.30
2018,08,10,09,42,23.30
2018,08,10,09,43,23.30
2018,08,10,09,44,23.30
2018,08,10,09,45,23.30
2018,08,10,09,46,23.30
2018,08,10,09,47,23.30
2018,08,10,09,48,23.30
2018,08,10,09,49,23.30
2018,08,10,09,50,23.20
2018,08,10,09,51,23.20
2018,08,10,09,52,23.20
2018,08,10,09,53,23.30
2018,08,10,09,54,23.30
2018,08,10,09,55,23.30
2018,08,10,09,56,23.20
2018,08,10,09,57,23.20
2018,08,10,09,58,23.10
2018,08,10,09,59,23.00
2018,08,10,10,00,22.90
2018,08,10,10,01,23.00
2018,08,10,10,02,22.90
2018,08,10,10,03,23.00
2018,08,10,10,04,23.00
2018,08,10,10,05,23.00
2018,08,10,10,06,23.10
2018,08,10,10,07,23.10
2018,08,10,10,08,23.20
2018,08,10,10,09,23.20
2018,08,10,10,10,23.30
2018,08,10,10,11,23.30
2018,08,10,10,12,23.30
2018,08,10,10,13,23.40
2018,08,10,10,14,23.40
2018,08,10,10,15,23.40
2018,08,10,10,16,23.40
2018,08,10,10,17,23.40
2018,08,10,10,18,23.40
2018,08,10,10,19,23.40
2018,08,10,10,20,23.30
2018,08,10,10,21,23.30
2018,08,10,10,22,23.20
2018,08,10,10,23,23.20
2018,08,10,10,24,23.20
2018,08,10,10,25,23.30
2018,08,10,10,26,23.30
2018,08,10,10,27,23.20
2018,08,10,10,28,23.20
2018,08,10,10,29,23.10
2018,08,10,10,30,23.10
2018,08,10,10,31,23.00
2018,08,10,10,32,23.00
2018,08,10,10,33,23.00
2018,08,10,10,34,23.00
2018,08,10,10,35,23.00
2018,08,10,10,36,22.90
2018,08,10,10,37,22.90
2018,08,10,10,38,22.90
2018,08,10,10,39,22.90
2018,08,10,10,40,22.80
2018,08,10,10,41,22.80
2018,08,10,10,42,22.80
2018,08,10,10,43,22.80
2018,08,10,10,44,22.80
2018,08,10,10,45,22.80
2018,08,10,10,46,22.70
2018,08,10,10,47,22.70
2018,08,10,10,48,22.70
2018,08,10,10,49,22.80
2018,08,10,10,50,22.80
2018,08,10,10,51,22.80
2018,08,10,10,52,22.80
2018,08,10,10,53,22.80
2018,08,10,10,54,22.80
2018,08,10,10,55,22.80
2018,08,10,10,56,22.80
2018,08,10,10,57,22.80
2018,08,10,10,58,22.80
2018,08,10,10,59,22.80
2018,08,10,11,00,22.80
2018,08,10,11,01,22.90
2018,08,10,11,02,23.00
2018,08,10,11,03,23.10
2018,08,10,11,04,23.10
2018,08,10,11,05,23.10
2018,08,10,11,06,23.10
2018,08,10,11,07,23.10
2018,08,10,11,08,23.10
2018,08,10,11,09,23.10
2018,08,10,11,10,23.10
2018,08,10,11,11,23.20
2018,08,10,11,12,23.20
2018,08,10,11,13,23.10
2018,08,10,11,14,23.10
2018,08,10,11,15,23.10
2018,08,10,11,16,23.10
2018,08,10,11,17,23.10
2018,08,10,11,18,23.10
2018,08,10,11,19,23.10
2018,08,10,11,20,23.10
2018,08,10,11,21,23.20
2018,08,10,11,22,23.20
2018,08,10,11,23,23.30
2018,08,10,11,24,23.30
2018,08,10,11,25,23.40
2018,08,10,11,26,23.40
2018,08,10,11,27,23.40
2018,08,10,11,28,23.50
2018,08,10,11,29,23.50
2018,08,10,11,30,23.50
2018,08,10,11,31,23.50
2018,08,10,11,32,23.50
2018,08,10,11,33,23.50
2018,08,10,11,34,23.60
2018,08,10,11,35,23.60
2018,08,10,11,36,23.60
2018,08,10,11,37,23.60
2018,08,10,11,38,23.60
2018,08,10,11,39,23.60
2018,08,10,11,40,23.70
2018,08,10,11,41,23.70
2018,08,10,11,42,23.70
2018,08,10,11,43,23.70
2018,08,10,11,44,23.70
2018,08,10,11,45,23.70
2018,08,10,11,46,23.70
2018,08,10,11,47,23.70
2018,08,10,11,48,23.80
2018,08,10,11,49,23.80
2018,08,10,11,50,23.80
2018,08,10,11,51,23.90
2018,08,10,11,52,23.90
2018,08,10,11,53,24.00
2018,08,10,11,54,24.10
2018,08,10,11,55,24.20
2018,08,10,11,56,24.20
2018,08,10,11,57,24.30
2018,08,10,11,58,24.30
2018,08,10,11,59,24.30
2018,08,10,12,00,24.30
2018,08,10,12,01,24.30
2018,08,10,12,02,24.40
2018,08,10,12,03,24.30
2018,08,10,12,04,24.30
2018,08,10,12,05,24.30
2018,08,10,12,06,24.30
2018,08,10,12,07,24.30
2018,08,10,12,08,24.30
2018,08,10,12,09,24.30
2018,08,10,12,10,24.40
2018,08,10,12,11,24.60
2018,08,10,12,12,24.70
2018,08,10,12,13,24.70
2018,08,10,12,14,24.70
2018,08,10,12,15,24.70
2018,08,10,12,16,24.70
2018,08,10,12,17,24.70
2018,08,10,12,18,24.70
2018,08,10,12,19,24.70
2018,08,10,12,20,24.80
2018,08,10,12,21,24.90
2018,08,10,12,22,24.90
2018,08,10,12,23,24.90
2018,08,10,12,24,25.00
2018,08,10,12,25,24.90
2018,08,10,12,26,24.90
2018,08,10,12,27,24.90
2018,08,10,12,28,24.90
2018,08,10,12,29,25.00
2018,08,10,12,30,24.90
2018,08,10,12,31,24.90
2018,08,10,12,32,25.00
2018,08,10,12,33,25.00
2018,08,10,12,34,25.00
2018,08,10,12,35,25.00
2018,08,10,12,36,25.00
2018,08,10,12,37,25.10
2018,08,10,12,38,25.10
2018,08,10,12,39,25.20
2018,08,10,12,40,25.20
2018,08,10,12,41,25.30
2018,08,10,12,42,25.40
2018,08,10,12,43,25.40
2018,08,10,12,44,25.50
2018,08,10,12,45,25.50
2018,08,10,12,46,25.50
2018,08,10,12,47,25.50
2018,08,10,12,48,25.50
2018,08,10,12,49,25.60
2018,08,10,12,50,25.60
2018,08,10,12,51,25.50
2018,08,10,12,52,25.50
2018,08,10,12,53,25.40
2018,08,10,12,54,25.30
2018,08,10,12,55,25.20
2018,08,10,12,56,25.20
2018,08,10,12,57,25.10
2018,08,10,12,58,25.10
2018,08,10,12,59,25.10
2018,08,10,13,00,25.00
2018,08,10,13,01,24.90
2018,08,10,13,02,24.90
2018,08,10,13,03,24.80
2018,08,10,13,04,24.80
2018,08,10,13,05,24.80
2018,08,10,13,06,24.80
2018,08,10,13,07,24.80
2018,08,10,13,08,24.80
2018,08,10,13,09,24.80
2018,08,10,13,10,24.70
2018,08,10,13,11,24.70
2018,08,10,13,12,24.70
2018,08,10,13,13,24.70
2018,08,10,13,14,24.70
2018,08,10,13,15,24.70
2018,08,10,13,16,24.70
2018,08,10,13,17,24.70
2018,08,10,13,18,24.80
2018,08,10,13,19,24.90
2018,08,10,13,20,25.00
2018,08,10,13,21,25.10
2018,08,10,13,22,25.20
2018,08,10,13,23,25.20
2018,08,10,13,24,25.10
2018,08,10,13,25,25.10
2018,08,10,13,26,25.00
2018,08,10,13,27,24.90
2018,08,10,13,28,24.90
2018,08,10,13,29,24.90
2018,08,10,13,30,24.90
2018,08,10,13,31,24.90
2018,08,10,13,32,24.90
2018,08,10,13,33,24.90
2018,08,10,13,34,24.80
2018,08,10,13,35,24.70
2018,08,10,13,36,24.60
2018,08,10,13,37,24.50
2018,08,10,13,38,24.40
2018,08,10,13,39,24.30
2018,08,10,13,40,24.20
2018,08,10,13,41,24.20
2018,08,10,13,42,24.20
2018,08,10,13,43,24.20
2018,08,10,13,44,24.30
2018,08,10,13,45,24.40
2018,08,10,13,46,24.50
2018,08,10,13,47,24.60
2018,08,10,13,48,24.80
2018,08,10,13,49,24.90
2018,08,10,13,50,25.00
2018,08,10,13,51,25.10
2018,08,10,13,52,25.10
2018,08,10,13,53,25.10
2018,08,10,13,54,25.20
2018,08,10,13,55,25.20
2018,08,10,13,56,25.20
2018,08,10,13,57,25.20
2018,08,10,13,58,25.20
2018,08,10,13,59,25.10
2018,08,10,14,00,25.10
2018,08,10,14,01,25.00
2018,08,10,14,02,24.90
2018,08,10,14,03,24.80
2018,08,10,14,04,24.70
2018,08,10,14,05,24.70
2018,08,10,14,06,24.60
2018,08,10,14,07,24.60
2018,08,10,14,08,24.70
2018,08,10,14,09,24.70
2018,08,10,14,10,24.60
2018,08,10,14,11,24.60
2018,08,10,14,12,24.60
2018,08,10,14,13,24.60
2018,08,10,14,14,24.60
2018,08,10,14,15,24.50
2018,08,10,14,16,24.40
2018,08,10,14,17,24.40
2018,08,10,14,18,24.50
2018,08,10,14,19,24.60
2018,08,10,14,20,24.60
2018,08,10,14,21,24.70
2018,08,10,14,22,24.80
2018,08,10,14,23,24.90
2018,08,10,14,24,24.90
2018,08,10,14,25,24.90
2018,08,10,14,26,25.00
2018,08,10,14,27,25.00
2018,08,10,14,28,25.00
2018,08,10,14,29,24.90
2018,08,10,14,30,24.90
2018,08,10,14,31,25.00
2018,08,10,14,32,25.00
2018,08,10,14,33,25.00
2018,08,10,14,34,25.10
2018,08,10,14,35,25.00
2018,08,10,14,36,25.00
2018,08,10,14,37,25.00
2018,08,10,14,38,25.00
2018,08,10,14,39,25.00
2018,08,10,14,40,25.20
2018,08,10,14,41,25.30
2018,08,10,14,42,25.40
2018,08,10,14,43,25.50
2018,08,10,14,44,25.60
2018,08,10,14,45,25.60
2018,08,10,14,46,25.70
2018,08,10,14,47,25.80
2018,08,10,14,48,25.90
2018,08,10,14,49,25.90
2018,08,10,14,50,26.00
2018,08,10,14,51,26.10
2018,08,10,14,52,26.10
2018,08,10,14,53,26.10
2018,08,10,14,54,26.10
2018,08,10,14,55,26.10
2018,08,10,14,56,26.10
2018,08,10,14,57,26.10
2018,08,10,14,58,26.10
2018,08,10,14,59,26.00
2018,08,10,15,00,26.00
2018,08,10,15,01,26.10
2018,08,10,15,02,26.10
2018,08,10,15,03,26.20
2018,08,10,15,04,26.10
2018,08,10,15,05,26.10
2018,08,10,15,06,26.00
2018,08,10,15,07,26.00
2018,08,10,15,08,25.90
2018,08,10,15,09,25.90
2018,08,10,15,10,25.80
2018,08,10,15,11,25.70
2018,08,10,15,12,25.60
2018,08,10,15,13,25.70
2018,08,10,15,14,25.60
2018,08,10,15,15,25.50
2018,08,10,15,16,25.50
2018,08,10,15,17,25.40
2018,08,10,15,18,25.30
2018,08,10,15,19,25.30
2018,08,10,15,20,25.30
2018,08,10,15,21,25.40
2018,08,10,15,22,25.40
2018,08,10,15,23,25.50
2018,08,10,15,24,25.70
2018,08,10,15,25,25.80
2018,08,10,15,26,25.90
2018,08,10,15,27,26.00
2018,08,10,15,28,26.30
2018,08,10,15,29,26.50
2018,08,10,15,30,26.80
2018,08,10,15,31,27.00
2018,08,10,15,32,27.10
2018,08,10,15,33,27.20
2018,08,10,15,34,27.30
2018,08,10,15,35,27.30
2018,08,10,15,36,27.40
2018,08,10,15,37,27.60
2018,08,10,15,38,27.80
2018,08,10,15,39,27.90
2018,08,10,15,40,27.90
2018,08,10,15,41,27.80
2018,08,10,15,42,27.80
2018,08,10,15,43,27.70
2018,08,10,15,44,27.60
2018,08,10,15,45,27.50
2018,08,10,15,46,27.40
2018,08,10,15,47,27.30
2018,08,10,15,48,27.30
2018,08,10,15,49,27.20
2018,08,10,15,50,27.20
2018,08,10,15,51,27.30
2018,08,10,15,52,27.30
2018,08,10,15,53,27.30
2018,08,10,15,54,27.30
2018,08,10,15,55,27.30
2018,08,10,15,56,27.20
2018,08,10,15,57,27.20
2018,08,10,15,58,27.30
2018,08,10,15,59,27.50
2018,08,10,16,00,27.50
2018,08,10,16,01,27.60
2018,08,10,16,02,27.60
2018,08,10,16,03,27.60
2018,08,10,16,04,27.60
2018,08,10,16,05,27.70
2018,08,10,16,06,27.60
2018,08,10,16,07,27.50
2018,08,10,16,08,27.40
2018,08,10,16,09,27.40
2018,08,10,16,10,27.40
2018,08,10,16,11,27.30
2018,08,10,16,12,27.30
2018,08,10,16,13,27.30
2018,08,10,16,14,27.30
2018,08,10,16,15,27.40
2018,08,10,16,16,27.40
2018,08,10,16,17,27.40
2018,08,10,16,18,27.30
2018,08,10,16,19,27.30
2018,08,10,16,20,27.30
2018,08,10,16,21,27.30
2018,08,10,16,22,27.30
2018,08,10,16,23,27.30
2018,08,10,16,24,27.30
2018,08,10,16,25,27.30
2018,08,10,16,26,27.30
2018,08,10,16,27,27.20
2018,08,10,16,28,27.10
2018,08,10,16,29,27.00
2018,08,10,16,30,27.00
2018,08,10,16,31,26.90
2018,08,10,16,32,26.90
2018,08,10,16,33,26.90
2018,08,10,16,34,26.80
2018,08,10,16,35,26.70
2018,08,10,16,36,26.80
2018,08,10,16,37,26.80
2018,08,10,16,38,26.80
2018,08,10,16,39,26.80
2018,08,10,16,40,26.80
2018,08,10,16,41,26.80
2018,08,10,16,42,26.80
2018,08,10,16,43,26.80
2018,08,10,16,44,26.80
2018,08,10,16,45,26.80
2018,08,10,16,46,26.90
2018,08,10,16,47,26.90
2018,08,10,16,48,26.80
2018,08,10,16,49,26.80
2018,08,10,16,50,26.90
2018,08,10,16,51,26.80
2018,08,10,16,52,26.80
2018,08,10,16,53,26.70
2018,08,10,16,54,26.70
2018,08,10,16,55,26.60
2018,08,10,16,56,26.60
2018,08,10,16,57,26.70
2018,08,10,16,58,26.70
2018,08,10,16,59,26.80
2018,08,10,17,00,26.90
2018,08,10,17,01,26.90
2018,08,10,17,02,26.90
2018,08,10,17,03,26.80
2018,08,10,17,04,26.80
2018,08,10,17,05,26.90
2018,08,10,17,06,27.00
2018,08,10,17,07,27.10
2018,08,10,17,08,27.10
2018,08,10,17,09,27.20
2018,08,10,17,10,27.30
2018,08,10,17,11,27.30
2018,08,10,17,12,27.30
2018,08,10,17,13,27.20
2018,08,10,17,14,27.20
2018,08,10,17,15,27.10
2018,08,10,17,16,27.10
2018,08,10,17,17,27.10
2018,08,10,17,18,27.10
2018,08,10,17,19,27.00